Time,TemperatureF,DewpointF,PressureIn,WindDirection,WindDirectionDegrees,WindSpeedMPH,WindSpeedGustMPH,Humidity,HourlyPrecipIn,Conditions,Clouds,dailyrainin,SoftwareType,DateUTC
2013-01-24 00:03:00,39.2,14.5,30.12,ENE,61,17.9,17.9,36,-99.99,,---,-99.99,VWS V14.01,2013-01-24 08:03:00,
2013-01-24 00:08:00,39.2,15.1,30.12,NE,36,17.9,17.9,37,-99.99,,---,-99.99,VWS V14.01,2013-01-24 08:08:00,
2013-01-24 00:13:00,39.2,15.1,30.12,ENE,78,25.5,26.6,37,-99.99,,---,-99.99,VWS V14.01,2013-01-24 08:13:00,
2013-01-24 00:18:00,39.4,15.9,30.12,NE,55,43.2,43.2,38,-99.99,,---,-99.99,VWS V14.01,2013-01-24 08:18:00,
2013-01-24 00:23:00,39.4,15.9,30.12,ENE,72,24.2,24.2,38,-99.99,,---,-99.99,VWS V14.01,2013-01-24 08:23:00,
2013-01-24 00:28:00,39.4,15.9,30.12,East,91,34.4,34.4,38,-99.99,,---,-99.99,VWS V14.01,2013-01-24 08:28:00,
2013-01-24 00:33:00,41.0,18.0,30.12,East,88,37.6,37.6,39,-99.99,,---,-99.99,VWS V14.01,2013-01-24 08:33:00,
2013-01-24 00:38:00,40.8,18.4,30.15,ENE,68,32.0,32.0,40,-99.99,,---,-99.99,VWS V14.01,2013-01-24 08:38:00,
2013-01-24 00:43:00,41.4,18.9,30.15,East,93,28.0,28.0,40,-99.99,,---,-99.99,VWS V14.01,2013-01-24 08:43:00,
2013-01-24 00:48:00,41.4,19.5,30.15,East,79,30.6,30.6,41,-99.99,,---,-99.99,VWS V14.01,2013-01-24 08:48:00,
2013-01-24 00:53:00,41.2,19.3,30.15,East,79,30.6,30.6,41,-99.99,,---,-99.99,VWS V14.01,2013-01-24 08:53:00,
2013-01-24 00:58:00,41.4,19.5,30.15,East,100,23.3,23.3,41,-99.99,,---,-99.99,VWS V14.01,2013-01-24 08:58:00,
2013-01-24 01:03:00,41.2,19.3,30.15,East,97,37.6,37.6,41,-99.99,,---,-99.99,VWS V14.01,2013-01-24 09:03:00,
2013-01-24 01:08:00,42.4,22.1,30.15,East,87,35.3,35.3,44,-99.99,,---,-99.99,VWS V14.01,2013-01-24 09:08:00,
2013-01-24 01:13:00,42.8,23.0,30.15,East,83,41.6,41.6,45,-99.99,,---,-99.99,VWS V14.01,2013-01-24 09:13:00,
2013-01-24 01:18:00,43.0,23.6,30.15,East,84,41.6,41.6,46,-99.99,,---,-99.99,VWS V14.01,2013-01-24 09:18:00,
2013-01-24 01:23:00,43.9,26.0,30.12,East,97,39.8,39.8,49,-99.99,,---,-99.99,VWS V14.01,2013-01-24 09:23:00,
2013-01-24 01:28:00,44.1,26.1,30.12,East,97,39.8,39.8,49,-99.99,,---,-99.99,VWS V14.01,2013-01-24 09:28:00,
2013-01-24 01:33:00,44.1,26.1,30.12,ENE,75,36.2,36.2,49,-99.99,,---,-99.99,VWS V14.01,2013-01-24 09:33:00,
2013-01-24 01:38:00,44.1,26.1,30.12,ENE,75,36.2,36.2,49,-99.99,,---,-99.99,VWS V14.01,2013-01-24 09:38:00,
2013-01-24 01:43:00,43.9,25.5,30.12,East,92,28.9,28.9,48,-99.99,,---,-99.99,VWS V14.01,2013-01-24 09:43:00,
2013-01-24 01:48:00,43.9,25.5,30.15,East,98,39.8,39.8,48,-99.99,,---,-99.99,VWS V14.01,2013-01-24 09:48:00,
2013-01-24 01:54:00,44.2,26.8,30.15,East,82,33.3,33.3,50,-99.99,,---,-99.99,VWS V14.01,2013-01-24 09:54:00,
2013-01-24 01:59:00,44.1,26.6,30.15,East,86,23.7,23.7,50,-99.99,,---,-99.99,VWS V14.01,2013-01-24 09:59:00,
2013-01-24 02:04:00,44.1,26.6,30.15,East,87,24.2,24.2,50,-99.99,,---,-99.99,VWS V14.01,2013-01-24 10:04:00,
2013-01-24 02:09:00,43.7,25.8,30.15,East,88,24.6,24.6,49,-99.99,,---,-99.99,VWS V14.01,2013-01-24 10:09:00,
2013-01-24 02:14:00,43.7,25.8,30.15,ENE,68,17.4,17.4,49,-99.99,,---,-99.99,VWS V14.01,2013-01-24 10:14:00,
2013-01-24 02:19:00,43.7,25.8,30.15,ESE,105,15.4,15.4,49,-99.99,,---,-99.99,VWS V14.01,2013-01-24 10:19:00,
2013-01-24 02:24:00,43.7,25.8,30.15,ENE,73,13.2,13.2,49,-99.99,,---,-99.99,VWS V14.01,2013-01-24 10:24:00,
2013-01-24 02:29:00,44.2,27.3,30.15,East,100,33.3,33.3,51,-99.99,,---,-99.99,VWS V14.01,2013-01-24 10:29:00,
2013-01-24 02:34:00,44.8,28.7,30.15,ENE,70,24.2,24.2,53,-99.99,,---,-99.99,VWS V14.01,2013-01-24 10:34:00,
2013-01-24 02:39:00,44.6,28.1,30.15,East,100,25.1,25.1,52,-99.99,,---,-99.99,VWS V14.01,2013-01-24 10:39:00,
2013-01-24 02:44:00,45.0,28.9,30.15,East,89,19.7,19.7,53,-99.99,,---,-99.99,VWS V14.01,2013-01-24 10:44:00,
2013-01-24 02:49:00,45.0,28.9,30.15,ENE,62,24.2,24.2,53,-99.99,,---,-99.99,VWS V14.01,2013-01-24 10:49:00,
2013-01-24 02:54:00,44.8,28.7,30.15,ENE,69,27.5,27.5,53,-99.99,,---,-99.99,VWS V14.01,2013-01-24 10:54:00,
2013-01-24 02:59:00,44.8,28.7,30.15,ESE,106,28.0,28.0,53,-99.99,,---,-99.99,VWS V14.01,2013-01-24 10:59:00,
2013-01-24 03:04:00,45.7,30.5,30.15,East,100,27.5,27.5,55,-99.99,,---,-99.99,VWS V14.01,2013-01-24 11:04:00,
2013-01-24 03:09:00,45.5,30.3,30.15,NE,51,34.4,34.4,55,-99.99,,---,-99.99,VWS V14.01,2013-01-24 11:09:00,
2013-01-24 03:14:00,45.3,29.7,30.15,East,95,15.0,21.5,54,-99.99,,---,-99.99,VWS V14.01,2013-01-24 11:14:00,
2013-01-24 03:19:00,45.1,29.0,30.15,East,95,15.0,15.0,53,-99.99,,---,-99.99,VWS V14.01,2013-01-24 11:19:00,
2013-01-24 03:24:00,45.1,29.0,30.15,ENE,73,25.7,25.7,53,-99.99,,---,-99.99,VWS V14.01,2013-01-24 11:24:00,
2013-01-24 03:29:00,45.5,30.3,30.15,East,92,18.3,18.3,55,-99.99,,---,-99.99,VWS V14.01,2013-01-24 11:29:00,
2013-01-24 03:34:00,45.9,31.1,30.15,East,89,23.3,23.3,56,-99.99,,---,-99.99,VWS V14.01,2013-01-24 11:34:00,
2013-01-24 03:39:00,45.9,31.1,30.15,East,87,21.0,21.0,56,-99.99,,---,-99.99,VWS V14.01,2013-01-24 11:39:00,
2013-01-24 03:44:00,45.7,30.5,30.15,ENE,58,11.0,11.0,55,-99.99,,---,-99.99,VWS V14.01,2013-01-24 11:44:00,
2013-01-24 03:49:00,45.9,31.1,30.15,East,95,24.6,24.6,56,-99.99,,---,-99.99,VWS V14.01,2013-01-24 11:49:00,
2013-01-24 03:54:00,46.0,31.2,30.15,East,95,24.6,24.6,56,-99.99,,---,-99.99,VWS V14.01,2013-01-24 11:54:00,
2013-01-24 03:59:00,45.9,30.6,30.15,East,83,19.2,19.2,55,-99.99,,---,-99.99,VWS V14.01,2013-01-24 11:59:00,
2013-01-24 04:04:00,45.7,30.5,30.15,East,99,21.0,21.0,55,-99.99,,---,-99.99,VWS V14.01,2013-01-24 12:04:00,
2013-01-24 04:09:00,45.7,30.5,30.15,ENE,76,25.1,25.1,55,-99.99,,---,-99.99,VWS V14.01,2013-01-24 12:09:00,
2013-01-24 04:14:00,45.7,30.5,30.15,East,82,22.8,22.8,55,-99.99,,---,-99.99,VWS V14.01,2013-01-24 12:14:00,
2013-01-24 04:19:00,45.5,30.3,30.15,ENE,67,17.0,17.0,55,-99.99,,---,-99.99,VWS V14.01,2013-01-24 12:19:00,
2013-01-24 04:24:00,45.5,30.3,30.15,East,83,20.6,20.6,55,-99.99,,---,-99.99,VWS V14.01,2013-01-24 12:24:00,
2013-01-24 04:29:00,46.0,31.2,30.15,East,83,20.6,20.6,56,-99.99,,---,-99.99,VWS V14.01,2013-01-24 12:29:00,
2013-01-24 04:34:00,45.7,30.9,30.15,East,90,11.0,11.0,56,-99.99,,---,-99.99,VWS V14.01,2013-01-24 12:34:00,
2013-01-24 04:39:00,45.7,30.9,30.15,East,93,15.4,15.4,56,-99.99,,---,-99.99,VWS V14.01,2013-01-24 12:39:00,
2013-01-24 04:45:00,45.3,30.1,30.15,East,101,15.0,15.0,55,-99.99,,---,-99.99,VWS V14.01,2013-01-24 12:45:00,
2013-01-24 04:49:00,45.3,30.1,30.15,East,94,15.4,15.4,55,-99.99,,---,-99.99,VWS V14.01,2013-01-24 12:49:00,
2013-01-24 04:55:00,45.3,30.6,30.15,East,81,20.1,20.1,56,-99.99,,---,-99.99,VWS V14.01,2013-01-24 12:55:00,
2013-01-24 05:00:00,45.3,30.6,30.15,East,96,19.7,19.7,56,-99.99,,---,-99.99,VWS V14.01,2013-01-24 13:00:00,
2013-01-24 05:05:00,45.1,30.4,30.15,East,96,19.7,19.7,56,-99.99,,---,-99.99,VWS V14.01,2013-01-24 13:05:00,
2013-01-24 05:10:00,45.0,29.8,30.15,East,92,18.8,18.8,55,-99.99,,---,-99.99,VWS V14.01,2013-01-24 13:10:00,
2013-01-24 05:15:00,45.0,29.8,30.15,East,96,12.8,12.8,55,-99.99,,---,-99.99,VWS V14.01,2013-01-24 13:15:00,
2013-01-24 05:20:00,45.1,30.4,30.15,East,99,12.8,15.4,56,-99.99,,---,-99.99,VWS V14.01,2013-01-24 13:20:00,
2013-01-24 05:25:00,45.1,30.4,30.15,East,93,13.6,13.6,56,-99.99,,---,-99.99,VWS V14.01,2013-01-24 13:25:00,
2013-01-24 05:30:00,45.3,30.6,30.15,ESE,102,14.5,14.5,56,-99.99,,---,-99.99,VWS V14.01,2013-01-24 13:30:00,
2013-01-24 05:35:00,45.5,31.2,30.15,East,94,11.0,11.0,57,-99.99,,---,-99.99,VWS V14.01,2013-01-24 13:35:00,
2013-01-24 05:40:00,45.5,31.2,30.15,East,94,11.0,11.0,57,-99.99,,---,-99.99,VWS V14.01,2013-01-24 13:40:00,
2013-01-24 05:45:00,45.5,31.2,30.15,SE,125,17.4,17.4,57,-99.99,,---,-99.99,VWS V14.01,2013-01-24 13:45:00,
2013-01-24 05:50:00,45.5,31.2,30.15,ESE,107,13.2,17.4,57,-99.99,,---,-99.99,VWS V14.01,2013-01-24 13:50:00,
2013-01-24 05:55:00,45.5,31.2,30.15,ESE,107,13.2,13.2,57,-99.99,,---,-99.99,VWS V14.01,2013-01-24 13:55:00,
2013-01-24 06:00:00,45.5,31.2,30.15,ESE,108,11.9,11.9,57,-99.99,,---,-99.99,VWS V14.01,2013-01-24 14:00:00,
2013-01-24 06:05:00,45.5,31.2,30.15,ESE,108,11.9,11.9,57,-99.99,,---,-99.99,VWS V14.01,2013-01-24 14:05:00,
2013-01-24 06:10:00,45.5,31.2,30.15,ESE,104,15.0,15.0,57,-99.99,,---,-99.99,VWS V14.01,2013-01-24 14:10:00,
2013-01-24 06:15:00,45.5,31.2,30.15,ESE,104,15.0,15.0,57,-99.99,,---,-99.99,VWS V14.01,2013-01-24 14:15:00,
2013-01-24 06:20:00,45.7,31.3,30.15,ESE,104,15.0,15.0,57,-99.99,,---,-99.99,VWS V14.01,2013-01-24 14:20:00,
2013-01-24 06:25:00,45.7,31.3,30.15,ESE,102,8.3,15.0,57,-99.99,,---,-99.99,VWS V14.01,2013-01-24 14:25:00,
2013-01-24 06:30:00,45.5,31.6,30.15,ESE,102,8.3,8.3,58,-99.99,,---,-99.99,VWS V14.01,2013-01-24 14:30:00,
2013-01-24 06:35:00,45.5,31.2,30.15,East,79,14.1,14.1,57,-99.99,,---,-99.99,VWS V14.01,2013-01-24 14:35:00,
2013-01-24 06:40:00,45.5,31.2,30.15,East,79,14.1,14.1,57,-99.99,,---,-99.99,VWS V14.01,2013-01-24 14:40:00,
2013-01-24 06:45:00,45.5,31.2,30.15,East,96,8.1,8.1,57,-99.99,,---,-99.99,VWS V14.01,2013-01-24 14:45:00,
2013-01-24 06:50:00,45.5,31.2,30.18,East,96,8.1,8.1,57,-99.99,,---,-99.99,VWS V14.01,2013-01-24 14:50:00,
2013-01-24 06:55:00,45.5,31.2,30.18,East,97,10.5,10.5,57,-99.99,,---,-99.99,VWS V14.01,2013-01-24 14:55:00,
2013-01-24 07:00:00,45.5,31.2,30.18,East,80,10.5,10.5,57,-99.99,,---,-99.99,VWS V14.01,2013-01-24 15:00:00,
2013-01-24 07:05:00,45.5,31.6,30.18,East,80,10.5,10.5,58,-99.99,,---,-99.99,VWS V14.01,2013-01-24 15:05:00,
2013-01-24 07:10:00,45.5,31.6,30.18,East,84,10.1,10.1,58,-99.99,,---,-99.99,VWS V14.01,2013-01-24 15:10:00,
2013-01-24 07:15:00,45.5,31.6,30.18,East,84,10.1,10.1,58,-99.99,,---,-99.99,VWS V14.01,2013-01-24 15:15:00,
2013-01-24 07:20:00,45.3,31.0,30.18,East,84,10.1,10.1,57,-99.99,,---,-99.99,VWS V14.01,2013-01-24 15:20:00,
2013-01-24 07:25:00,45.3,31.0,30.18,ENE,76,11.0,11.0,57,-99.99,,---,-99.99,VWS V14.01,2013-01-24 15:25:00,
2013-01-24 07:30:00,45.5,31.6,30.18,ENE,76,11.0,11.0,58,-99.99,,---,-99.99,VWS V14.01,2013-01-24 15:30:00,
2013-01-24 07:35:00,45.5,31.6,30.18,ENE,59,10.5,10.5,58,-99.99,,---,-99.99,VWS V14.01,2013-01-24 15:35:00,
2013-01-24 07:40:00,45.5,31.6,30.18,ENE,59,10.5,10.5,58,-99.99,,---,-99.99,VWS V14.01,2013-01-24 15:40:00,
2013-01-24 07:45:00,45.3,31.0,30.18,East,87,7.6,7.6,57,-99.99,,---,-99.99,VWS V14.01,2013-01-24 15:45:00,
2013-01-24 07:50:00,45.3,31.0,30.18,East,87,7.6,7.6,57,-99.99,,---,-99.99,VWS V14.01,2013-01-24 15:50:00,
2013-01-24 07:55:00,45.1,30.8,30.18,East,87,10.5,10.5,57,-99.99,,---,-99.99,VWS V14.01,2013-01-24 15:55:00,
2013-01-24 08:00:00,45.1,30.8,30.18,East,90,10.1,10.5,57,-99.99,,---,-99.99,VWS V14.01,2013-01-24 16:00:00,
2013-01-24 08:05:00,45.0,30.7,30.18,East,90,10.1,10.1,57,-99.99,,---,-99.99,VWS V14.01,2013-01-24 16:05:00,
2013-01-24 08:10:00,44.8,30.1,30.18,East,92,13.2,13.2,56,-99.99,,---,-99.99,VWS V14.01,2013-01-24 16:10:00,
2013-01-24 08:15:00,44.8,30.1,30.18,East,92,13.2,13.2,56,-99.99,,---,-99.99,VWS V14.01,2013-01-24 16:15:00,
2013-01-24 08:20:00,44.6,29.9,30.18,East,89,13.6,13.6,56,-99.99,,---,-99.99,VWS V14.01,2013-01-24 16:20:00,
2013-01-24 08:25:00,44.6,29.9,30.18,East,89,13.6,13.6,56,-99.99,,---,-99.99,VWS V14.01,2013-01-24 16:25:00,
2013-01-24 08:30:00,44.6,29.9,30.18,East,98,8.3,8.3,56,-99.99,,---,-99.99,VWS V14.01,2013-01-24 16:30:00,
2013-01-24 08:35:00,44.6,29.9,30.18,ESE,109,10.1,10.1,56,-99.99,,---,-99.99,VWS V14.01,2013-01-24 16:35:00,
2013-01-24 08:40:00,44.8,30.5,30.18,ESE,109,10.1,10.1,57,-99.99,,---,-99.99,VWS V14.01,2013-01-24 16:40:00,
2013-01-24 08:45:00,45.0,30.7,30.18,ESE,108,9.6,9.6,57,-99.99,,---,-99.99,VWS V14.01,2013-01-24 16:45:00,
2013-01-24 08:50:00,45.0,30.7,30.21,ESE,108,9.6,9.6,57,-99.99,,---,-99.99,VWS V14.01,2013-01-24 16:50:00,
2013-01-24 08:55:00,45.1,30.8,30.21,SE,126,11.0,11.0,57,-99.99,,---,-99.99,VWS V14.01,2013-01-24 16:55:00,
2013-01-24 09:00:00,45.1,30.8,30.21,ESE,112,13.2,13.2,57,-99.99,,---,-99.99,VWS V14.01,2013-01-24 17:00:00,
2013-01-24 09:05:00,45.1,30.8,30.21,ESE,112,13.2,13.2,57,-99.99,,---,-99.99,VWS V14.01,2013-01-24 17:05:00,
2013-01-24 09:10:00,45.3,31.0,30.21,ESE,114,10.1,10.1,57,-99.99,,---,-99.99,VWS V14.01,2013-01-24 17:10:00,
2013-01-24 09:15:00,45.5,31.2,30.21,ESE,114,10.1,10.1,57,-99.99,,---,-99.99,VWS V14.01,2013-01-24 17:15:00,
2013-01-24 09:20:00,45.5,31.2,30.21,ESE,114,10.1,10.1,57,-99.99,,---,-99.99,VWS V14.01,2013-01-24 17:20:00,
2013-01-24 09:25:00,45.5,31.2,30.21,ESE,114,10.1,10.1,57,-99.99,,---,-99.99,VWS V14.01,2013-01-24 17:25:00,
2013-01-24 09:30:00,45.5,30.7,30.21,ESE,114,10.1,10.1,56,-99.99,,---,-99.99,VWS V14.01,2013-01-24 17:30:00,
2013-01-24 09:35:00,45.5,30.7,30.21,ESE,114,10.1,10.1,56,-99.99,,---,-99.99,VWS V14.01,2013-01-24 17:35:00,
2013-01-24 09:40:00,46.0,31.2,30.21,ESE,114,10.1,10.1,56,-99.99,,---,-99.99,VWS V14.01,2013-01-24 17:40:00,
2013-01-24 09:45:00,45.9,29.7,30.21,ESE,114,10.1,10.1,53,-99.99,,---,-99.99,VWS V14.01,2013-01-24 17:45:00,
2013-01-24 09:50:00,45.9,29.7,30.21,ESE,114,10.1,10.1,53,-99.99,,---,-99.99,VWS V14.01,2013-01-24 17:50:00,
2013-01-24 09:55:00,45.7,29.1,30.21,ESE,114,10.1,10.1,52,-99.99,,---,-99.99,VWS V14.01,2013-01-24 17:55:00,
2013-01-24 10:00:00,45.7,29.1,30.21,ESE,114,10.1,10.1,52,-99.99,,---,-99.99,VWS V14.01,2013-01-24 18:00:00,
2013-01-24 10:05:00,46.0,29.9,30.21,ESE,114,10.1,10.1,53,-99.99,,---,-99.99,VWS V14.01,2013-01-24 18:05:00,
2013-01-24 10:10:00,46.0,29.9,30.21,ESE,114,10.1,10.1,53,-99.99,,---,-99.99,VWS V14.01,2013-01-24 18:10:00,
2013-01-24 10:15:00,46.4,30.2,30.21,ESE,114,10.1,10.1,53,-99.99,,---,-99.99,VWS V14.01,2013-01-24 18:15:00,
2013-01-24 10:20:00,47.7,32.3,30.21,ESE,114,10.1,10.1,55,-99.99,,---,-99.99,VWS V14.01,2013-01-24 18:20:00,
2013-01-24 10:25:00,47.3,30.6,30.21,ESE,114,10.1,10.1,52,-99.99,,---,-99.99,VWS V14.01,2013-01-24 18:25:00,
2013-01-24 10:30:00,47.1,30.4,30.21,ESE,114,10.1,10.1,52,-99.99,,---,-99.99,VWS V14.01,2013-01-24 18:30:00,
2013-01-24 10:35:00,47.1,30.4,30.21,ESE,114,10.1,10.1,52,-99.99,,---,-99.99,VWS V14.01,2013-01-24 18:35:00,
2013-01-24 10:40:00,47.3,31.0,30.21,ESE,114,10.1,10.1,53,-99.99,,---,-99.99,VWS V14.01,2013-01-24 18:40:00,
2013-01-24 10:45:00,46.6,29.9,30.21,East,81,7.6,7.6,52,-99.99,,---,-99.99,VWS V14.01,2013-01-24 18:45:00,
2013-01-24 10:50:00,46.6,29.9,30.21,East,81,7.6,7.6,52,-99.99,,---,-99.99,VWS V14.01,2013-01-24 18:50:00,
2013-01-24 10:55:00,46.4,30.2,30.21,East,81,7.6,7.6,53,-99.99,,---,-99.99,VWS V14.01,2013-01-24 18:55:00,
2013-01-24 11:00:00,46.4,30.2,30.21,East,81,7.6,7.6,53,-99.99,,---,-99.99,VWS V14.01,2013-01-24 19:00:00,
2013-01-24 11:05:00,46.4,30.2,30.21,East,81,7.6,7.6,53,-99.99,,---,-99.99,VWS V14.01,2013-01-24 19:05:00,
2013-01-24 11:10:00,46.4,30.2,30.21,East,81,7.6,7.6,53,-99.99,,---,-99.99,VWS V14.01,2013-01-24 19:10:00,
2013-01-24 11:15:00,46.2,30.5,30.21,East,81,7.6,7.6,54,-99.99,,---,-99.99,VWS V14.01,2013-01-24 19:15:00,
2013-01-24 11:20:00,46.9,31.2,30.21,East,81,7.6,7.6,54,-99.99,,---,-99.99,VWS V14.01,2013-01-24 19:20:00,
2013-01-24 11:25:00,46.9,31.2,30.21,East,81,7.6,7.6,54,-99.99,,---,-99.99,VWS V14.01,2013-01-24 19:25:00,
2013-01-24 11:30:00,47.5,31.7,30.21,East,81,7.6,7.6,54,-99.99,,---,-99.99,VWS V14.01,2013-01-24 19:30:00,
2013-01-24 11:35:00,48.0,32.2,30.21,ENE,72,4.0,4.0,54,-99.99,,---,-99.99,VWS V14.01,2013-01-24 19:35:00,
2013-01-24 11:40:00,48.7,32.4,30.21,ENE,72,4.0,4.0,53,-99.99,,---,-99.99,VWS V14.01,2013-01-24 19:40:00,
2013-01-24 11:45:00,49.6,33.2,30.21,ENE,72,4.0,4.0,53,-99.99,,---,-99.99,VWS V14.01,2013-01-24 19:45:00,
2013-01-24 11:51:00,49.6,33.2,30.21,ENE,72,4.0,4.0,53,-99.99,,---,-99.99,VWS V14.01,2013-01-24 19:51:00,
2013-01-24 11:55:00,50.0,32.6,30.21,ENE,72,4.0,4.0,51,-99.99,,---,-99.99,VWS V14.01,2013-01-24 19:55:00,
2013-01-24 12:01:00,49.8,32.4,30.21,ENE,72,4.0,4.0,51,-99.99,,---,-99.99,VWS V14.01,2013-01-24 20:01:00,
2013-01-24 12:06:00,49.1,30.8,30.21,ENE,72,4.0,4.0,49,-99.99,,---,-99.99,VWS V14.01,2013-01-24 20:06:00,
2013-01-24 12:11:00,49.1,30.8,30.21,ENE,72,4.0,4.0,49,-99.99,,---,-99.99,VWS V14.01,2013-01-24 20:11:00,
2013-01-24 12:16:00,48.6,30.3,30.21,ENE,72,4.0,4.0,49,-99.99,,---,-99.99,VWS V14.01,2013-01-24 20:16:00,
2013-01-24 12:21:00,48.2,30.5,30.21,ENE,72,4.0,4.0,50,-99.99,,---,-99.99,VWS V14.01,2013-01-24 20:21:00,
2013-01-24 12:26:00,48.4,30.6,30.21,ENE,72,4.0,4.0,50,-99.99,,---,-99.99,VWS V14.01,2013-01-24 20:26:00,
2013-01-24 12:31:00,50.2,33.7,30.21,ENE,72,4.0,4.0,53,-99.99,,---,-99.99,VWS V14.01,2013-01-24 20:31:00,
2013-01-24 12:36:00,50.2,33.7,30.18,ENE,72,4.0,4.0,53,-99.99,,---,-99.99,VWS V14.01,2013-01-24 20:36:00,
2013-01-24 12:41:00,50.7,32.8,30.18,ENE,72,4.0,4.0,50,-99.99,,---,-99.99,VWS V14.01,2013-01-24 20:41:00,
2013-01-24 12:46:00,50.0,30.6,30.18,ENE,72,4.0,4.0,47,-99.99,,---,-99.99,VWS V14.01,2013-01-24 20:46:00,
2013-01-24 12:51:00,49.6,30.2,30.18,ENE,72,4.0,4.0,47,-99.99,,---,-99.99,VWS V14.01,2013-01-24 20:51:00,
2013-01-24 12:56:00,49.8,29.9,30.18,ENE,72,4.0,4.0,46,-99.99,,---,-99.99,VWS V14.01,2013-01-24 20:56:00,
2013-01-24 13:01:00,49.8,29.9,30.18,ENE,72,4.0,4.0,46,-99.99,,---,-99.99,VWS V14.01,2013-01-24 21:01:00,
2013-01-24 13:06:00,50.4,30.4,30.18,ENE,72,4.0,4.0,46,-99.99,,---,-99.99,VWS V14.01,2013-01-24 21:06:00,
2013-01-24 13:11:00,50.4,30.4,30.18,ENE,72,4.0,4.0,46,-99.99,,---,-99.99,VWS V14.01,2013-01-24 21:11:00,
2013-01-24 13:16:00,49.8,28.8,30.18,ENE,72,4.0,4.0,44,-99.99,,---,-99.99,VWS V14.01,2013-01-24 21:16:00,
2013-01-24 13:21:00,48.9,26.3,30.18,ENE,72,4.0,4.0,41,-99.99,,---,-99.99,VWS V14.01,2013-01-24 21:21:00,
2013-01-24 13:26:00,48.9,26.3,30.18,ENE,72,4.0,4.0,41,-99.99,,---,-99.99,VWS V14.01,2013-01-24 21:26:00,
2013-01-24 13:31:00,48.9,27.4,30.18,ENE,72,4.0,4.0,43,-99.99,,---,-99.99,VWS V14.01,2013-01-24 21:31:00,
2013-01-24 13:36:00,48.7,27.3,30.18,ENE,72,4.0,4.0,43,-99.99,,---,-99.99,VWS V14.01,2013-01-24 21:36:00,
2013-01-24 13:41:00,48.6,27.1,30.18,ENE,72,4.0,4.0,43,-99.99,,---,-99.99,VWS V14.01,2013-01-24 21:41:00,
2013-01-24 13:46:00,48.6,27.1,30.18,ENE,72,4.0,4.0,43,-99.99,,---,-99.99,VWS V14.01,2013-01-24 21:46:00,
2013-01-24 13:51:00,47.8,25.3,30.18,ENE,72,4.0,4.0,41,-99.99,,---,-99.99,VWS V14.01,2013-01-24 21:51:00,
2013-01-24 13:56:00,47.3,24.2,30.18,ENE,72,4.0,4.0,40,-99.99,,---,-99.99,VWS V14.01,2013-01-24 21:56:00,
2013-01-24 14:01:00,47.3,24.2,30.18,ENE,72,4.0,4.0,40,-99.99,,---,-99.99,VWS V14.01,2013-01-24 22:01:00,
2013-01-24 14:06:00,46.9,24.5,30.18,ENE,72,4.0,4.0,41,-99.99,,---,-99.99,VWS V14.01,2013-01-24 22:06:00,
2013-01-24 14:11:00,46.9,24.5,30.18,ENE,72,4.0,4.0,41,-99.99,,---,-99.99,VWS V14.01,2013-01-24 22:11:00,
2013-01-24 14:16:00,46.9,25.1,30.18,ENE,72,4.0,4.0,42,-99.99,,---,-99.99,VWS V14.01,2013-01-24 22:16:00,
2013-01-24 14:21:00,46.8,26.0,30.18,ENE,67,5.8,5.8,44,-99.99,,---,-99.99,VWS V14.01,2013-01-24 22:21:00,
2013-01-24 14:26:00,46.8,26.0,30.18,ENE,64,8.1,8.1,44,-99.99,,---,-99.99,VWS V14.01,2013-01-24 22:26:00,
2013-01-24 14:31:00,46.6,26.4,30.18,ENE,64,8.1,8.1,45,-99.99,,---,-99.99,VWS V14.01,2013-01-24 22:31:00,
2013-01-24 14:36:00,46.6,26.4,30.18,NE,54,4.9,4.9,45,-99.99,,---,-99.99,VWS V14.01,2013-01-24 22:36:00,
2013-01-24 14:41:00,46.6,26.4,30.18,ENE,66,5.4,5.4,45,-99.99,,---,-99.99,VWS V14.01,2013-01-24 22:41:00,
2013-01-24 14:46:00,46.4,26.8,30.18,East,89,8.3,8.3,46,-99.99,,---,-99.99,VWS V14.01,2013-01-24 22:46:00,
2013-01-24 14:51:00,46.4,26.8,30.18,East,79,12.8,12.8,46,-99.99,,---,-99.99,VWS V14.01,2013-01-24 22:51:00,
2013-01-24 14:56:00,46.4,26.8,30.18,ENE,60,8.1,8.1,46,-99.99,,---,-99.99,VWS V14.01,2013-01-24 22:56:00,
2013-01-24 15:01:00,46.4,26.8,30.18,ENE,58,7.6,7.6,46,-99.99,,---,-99.99,VWS V14.01,2013-01-24 23:01:00,
2013-01-24 15:06:00,46.4,27.8,30.18,NE,56,5.8,5.8,48,-99.99,,---,-99.99,VWS V14.01,2013-01-24 23:06:00,
2013-01-24 15:11:00,46.4,27.8,30.18,ENE,62,3.6,3.6,48,-99.99,,---,-99.99,VWS V14.01,2013-01-24 23:11:00,
2013-01-24 15:16:00,46.4,27.8,30.18,ENE,57,0.0,0.0,48,-99.99,,---,-99.99,VWS V14.01,2013-01-24 23:16:00,
2013-01-24 15:21:00,46.4,27.8,30.18,ENE,75,0.0,0.0,48,-99.99,,---,-99.99,VWS V14.01,2013-01-24 23:21:00,
2013-01-24 15:26:00,46.4,27.8,30.18,ENE,58,0.0,0.0,48,-99.99,,---,-99.99,VWS V14.01,2013-01-24 23:26:00,
2013-01-24 15:31:00,46.2,27.6,30.18,ENE,66,0.0,0.0,48,-99.99,,---,-99.99,VWS V14.01,2013-01-24 23:31:00,
2013-01-24 15:36:00,46.2,27.6,30.18,ENE,65,0.0,0.0,48,-99.99,,---,-99.99,VWS V14.01,2013-01-24 23:36:00,
2013-01-24 15:41:00,46.2,27.6,30.18,ENE,71,0.0,0.0,48,-99.99,,---,-99.99,VWS V14.01,2013-01-24 23:41:00,
2013-01-24 15:46:00,46.2,27.6,30.18,East,79,0.0,0.0,48,-99.99,,---,-99.99,VWS V14.01,2013-01-24 23:46:00,
2013-01-24 15:51:00,46.2,27.6,30.18,East,89,0.0,0.0,48,-99.99,,---,-99.99,VWS V14.01,2013-01-24 23:51:00,
2013-01-24 15:56:00,46.0,27.5,30.18,ENE,78,0.0,0.0,48,-99.99,,---,-99.99,VWS V14.01,2013-01-24 23:56:00,
2013-01-24 16:01:00,46.0,27.5,30.18,East,82,6.7,7.6,48,-99.99,,---,-99.99,VWS V14.01,2013-01-25 00:01:00,
2013-01-24 16:06:00,46.0,27.5,30.18,East,86,8.1,8.1,48,-99.99,,---,-99.99,VWS V14.01,2013-01-25 00:06:00,
2013-01-24 16:11:00,46.0,27.5,30.18,East,92,9.2,9.2,48,-99.99,,---,-99.99,VWS V14.01,2013-01-25 00:11:00,
2013-01-24 16:16:00,45.9,27.8,30.18,East,85,10.1,10.1,49,-99.99,,---,-99.99,VWS V14.01,2013-01-25 00:16:00,
2013-01-24 16:21:00,45.9,27.8,30.18,East,84,11.9,11.9,49,-99.99,,---,-99.99,VWS V14.01,2013-01-25 00:21:00,
2013-01-24 16:26:00,45.9,27.8,30.18,ENE,75,11.4,11.4,49,-99.99,,---,-99.99,VWS V14.01,2013-01-25 00:26:00,
2013-01-24 16:31:00,45.9,27.8,30.18,East,86,8.1,8.1,49,-99.99,,---,-99.99,VWS V14.01,2013-01-25 00:31:00,
2013-01-24 16:36:00,45.9,27.8,30.18,ENE,67,8.7,8.7,49,-99.99,,---,-99.99,VWS V14.01,2013-01-25 00:36:00,
2013-01-24 16:41:00,45.7,27.6,30.18,East,86,11.0,11.0,49,-99.99,,---,-99.99,VWS V14.01,2013-01-25 00:41:00,
2013-01-24 16:46:00,45.7,27.6,30.18,East,79,8.7,8.7,49,-99.99,,---,-99.99,VWS V14.01,2013-01-25 00:46:00,
2013-01-24 16:51:00,45.7,27.6,30.18,ENE,61,6.3,6.3,49,-99.99,,---,-99.99,VWS V14.01,2013-01-25 00:51:00,
2013-01-24 16:56:00,45.7,27.6,30.18,ENE,68,5.8,5.8,49,-99.99,,---,-99.99,VWS V14.01,2013-01-25 00:56:00,
2013-01-24 17:01:00,45.7,27.6,30.18,ENE,57,4.9,4.9,49,-99.99,,---,-99.99,VWS V14.01,2013-01-25 01:01:00,
2013-01-24 17:06:00,45.0,27.0,30.18,ENE,69,6.3,6.3,49,-99.99,,---,-99.99,VWS V14.01,2013-01-25 01:06:00,
2013-01-24 17:11:00,45.0,27.0,30.18,NE,55,11.4,11.4,49,-99.99,,---,-99.99,VWS V14.01,2013-01-25 01:11:00,
2013-01-24 17:16:00,45.0,27.0,30.18,ENE,66,8.7,8.7,49,-99.99,,---,-99.99,VWS V14.01,2013-01-25 01:16:00,
2013-01-24 17:21:00,45.0,27.0,30.18,ENE,71,7.6,7.6,49,-99.99,,---,-99.99,VWS V14.01,2013-01-25 01:21:00,
2013-01-24 17:26:00,44.6,27.1,30.18,ENE,69,7.6,7.6,50,-99.99,,---,-99.99,VWS V14.01,2013-01-25 01:26:00,
2013-01-24 17:31:00,44.6,27.1,30.18,East,84,11.0,11.0,50,-99.99,,---,-99.99,VWS V14.01,2013-01-25 01:31:00,
2013-01-24 17:36:00,44.6,27.1,30.18,East,83,10.5,10.5,50,-99.99,,---,-99.99,VWS V14.01,2013-01-25 01:36:00,
2013-01-24 17:41:00,44.6,27.1,30.18,East,85,10.1,10.1,50,-99.99,,---,-99.99,VWS V14.01,2013-01-25 01:41:00,
2013-01-24 17:46:00,44.6,27.1,30.18,East,84,8.7,8.7,50,-99.99,,---,-99.99,VWS V14.01,2013-01-25 01:46:00,
2013-01-24 17:51:00,44.2,27.3,30.18,ENE,76,8.3,8.3,51,-99.99,,---,-99.99,VWS V14.01,2013-01-25 01:51:00,
2013-01-24 17:56:00,44.2,27.3,30.18,ENE,72,10.1,10.1,51,-99.99,,---,-99.99,VWS V14.01,2013-01-25 01:56:00,
2013-01-24 18:01:00,44.2,27.3,30.18,ENE,61,7.6,7.6,51,-99.99,,---,-99.99,VWS V14.01,2013-01-25 02:01:00,
2013-01-24 18:06:00,44.2,27.3,30.18,ENE,65,8.7,8.7,51,-99.99,,---,-99.99,VWS V14.01,2013-01-25 02:06:00,
2013-01-24 18:11:00,44.2,27.3,30.18,ENE,63,8.7,8.7,51,-99.99,,---,-99.99,VWS V14.01,2013-01-25 02:11:00,
2013-01-24 18:16:00,44.1,27.6,30.18,ENE,77,8.3,8.3,52,-99.99,,---,-99.99,VWS V14.01,2013-01-25 02:16:00,
2013-01-24 18:21:00,44.1,27.6,30.18,ENE,78,11.0,11.0,52,-99.99,,---,-99.99,VWS V14.01,2013-01-25 02:21:00,
2013-01-24 18:26:00,44.1,27.6,30.18,East,84,8.3,8.3,52,-99.99,,---,-99.99,VWS V14.01,2013-01-25 02:26:00,
2013-01-24 18:31:00,44.1,27.6,30.18,ENE,74,9.6,9.6,52,-99.99,,---,-99.99,VWS V14.01,2013-01-25 02:31:00,
2013-01-24 18:36:00,44.1,27.6,30.18,ENE,67,11.0,11.0,52,-99.99,,---,-99.99,VWS V14.01,2013-01-25 02:36:00,
2013-01-24 18:41:00,44.1,27.6,30.18,East,80,8.1,8.1,52,-99.99,,---,-99.99,VWS V14.01,2013-01-25 02:41:00,
2013-01-24 18:46:00,44.1,27.6,30.18,ENE,74,8.7,8.7,52,-99.99,,---,-99.99,VWS V14.01,2013-01-25 02:46:00,
2013-01-24 18:51:00,44.1,27.6,30.18,NE,56,10.1,10.1,52,-99.99,,---,-99.99,VWS V14.01,2013-01-25 02:51:00,
2013-01-24 18:56:00,44.1,28.0,30.18,NE,53,11.0,11.0,53,-99.99,,---,-99.99,VWS V14.01,2013-01-25 02:56:00,
2013-01-24 19:01:00,44.4,28.8,30.18,ENE,58,10.1,10.1,54,-99.99,,---,-99.99,VWS V14.01,2013-01-25 03:01:00,
2013-01-24 19:06:00,44.6,29.0,30.18,NE,47,12.8,12.8,54,-99.99,,---,-99.99,VWS V14.01,2013-01-25 03:06:00,
2013-01-24 19:11:00,44.6,29.0,30.18,ENE,75,9.2,11.0,54,-99.99,,---,-99.99,VWS V14.01,2013-01-25 03:11:00,
2013-01-24 19:16:00,44.6,29.0,30.18,ENE,68,9.6,10.1,54,-99.99,,---,-99.99,VWS V14.01,2013-01-25 03:16:00,
2013-01-24 19:21:00,44.6,29.0,30.18,ENE,63,8.7,8.7,54,-99.99,,---,-99.99,VWS V14.01,2013-01-25 03:21:00,
2013-01-24 19:26:00,44.4,28.8,30.18,ENE,75,8.3,8.3,54,-99.99,,---,-99.99,VWS V14.01,2013-01-25 03:26:00,
2013-01-24 19:31:00,44.4,28.8,30.18,ENE,63,8.7,8.7,54,-99.99,,---,-99.99,VWS V14.01,2013-01-25 03:31:00,
2013-01-24 19:36:00,44.4,28.8,30.18,ENE,69,10.5,11.0,54,-99.99,,---,-99.99,VWS V14.01,2013-01-25 03:36:00,
2013-01-24 19:41:00,44.6,29.0,30.18,ENE,72,10.1,10.1,54,-99.99,,---,-99.99,VWS V14.01,2013-01-25 03:41:00,
2013-01-24 19:46:00,44.6,29.0,30.18,ENE,75,11.4,11.4,54,-99.99,,---,-99.99,VWS V14.01,2013-01-25 03:46:00,
2013-01-24 19:51:00,44.6,29.0,30.18,ENE,71,11.0,12.8,54,-99.99,,---,-99.99,VWS V14.01,2013-01-25 03:51:00,
2013-01-24 19:56:00,44.4,28.8,30.18,ENE,60,6.3,7.6,54,-99.99,,---,-99.99,VWS V14.01,2013-01-25 03:56:00,
2013-01-24 20:01:00,44.4,28.8,30.18,ENE,63,8.1,8.1,54,-99.99,,---,-99.99,VWS V14.01,2013-01-25 04:01:00,
2013-01-24 20:06:00,44.4,29.3,30.18,ENE,60,10.1,10.1,55,-99.99,,---,-99.99,VWS V14.01,2013-01-25 04:06:00,
2013-01-24 20:11:00,44.8,29.6,30.18,ENE,59,6.3,8.3,55,-99.99,,---,-99.99,VWS V14.01,2013-01-25 04:11:00,
2013-01-24 20:16:00,44.8,29.6,30.18,ENE,64,8.1,8.1,55,-99.99,,---,-99.99,VWS V14.01,2013-01-25 04:16:00,
2013-01-24 20:21:00,44.8,30.1,30.18,ENE,59,6.7,6.7,56,-99.99,,---,-99.99,VWS V14.01,2013-01-25 04:21:00,
2013-01-24 20:26:00,44.8,30.1,30.18,ENE,67,6.3,6.3,56,-99.99,,---,-99.99,VWS V14.01,2013-01-25 04:26:00,
2013-01-24 20:31:00,45.0,30.2,30.18,ENE,59,8.7,12.8,56,-99.99,,---,-99.99,VWS V14.01,2013-01-25 04:31:00,
2013-01-24 20:36:00,44.8,30.1,30.18,ENE,70,9.6,9.6,56,-99.99,,---,-99.99,VWS V14.01,2013-01-25 04:36:00,
2013-01-24 20:41:00,45.0,30.2,30.18,ENE,58,12.3,12.3,56,-99.99,,---,-99.99,VWS V14.01,2013-01-25 04:41:00,
2013-01-24 20:46:00,45.0,30.2,30.18,ENE,58,8.7,8.7,56,-99.99,,---,-99.99,VWS V14.01,2013-01-25 04:46:00,
2013-01-24 20:51:00,45.0,30.2,30.18,ENE,69,7.6,7.6,56,-99.99,,---,-99.99,VWS V14.01,2013-01-25 04:51:00,
2013-01-24 20:56:00,45.0,30.2,30.18,ENE,66,8.7,8.7,56,-99.99,,---,-99.99,VWS V14.01,2013-01-25 04:56:00,
2013-01-24 21:00:00,44.8,30.1,30.18,NE,52,8.7,8.7,56,-99.99,,---,-99.99,VWS V14.01,2013-01-25 05:00:00,
2013-01-24 21:01:00,44.8,30.1,30.18,NE,52,8.7,8.7,56,-99.99,,---,-99.99,VWS V14.01,2013-01-25 05:01:00,
2013-01-24 21:02:00,44.8,30.1,30.18,ENE,59,8.3,8.7,56,-99.99,,---,-99.99,VWS V14.01,2013-01-25 05:02:00,
2013-01-24 21:03:00,44.8,30.1,30.18,ENE,59,8.3,8.3,56,-99.99,,---,-99.99,VWS V14.01,2013-01-25 05:03:00,
2013-01-24 21:08:00,44.8,30.1,30.18,ENE,65,10.5,10.5,56,-99.99,,---,-99.99,VWS V14.01,2013-01-25 05:08:00,
2013-01-24 21:13:00,44.6,29.9,30.18,ENE,63,10.1,10.1,56,-99.99,,---,-99.99,VWS V14.01,2013-01-25 05:13:00,
2013-01-24 21:18:00,44.6,29.9,30.18,ENE,60,13.2,13.2,56,-99.99,,---,-99.99,VWS V14.01,2013-01-25 05:18:00,
2013-01-24 21:23:00,44.6,30.3,30.24,ENE,71,12.8,12.8,57,-99.99,,---,-99.99,VWS V14.01,2013-01-25 05:23:00,
2013-01-24 21:28:00,44.6,30.3,30.24,NE,55,11.0,11.0,57,-99.99,,---,-99.99,VWS V14.01,2013-01-25 05:28:00,
2013-01-24 21:33:00,44.8,30.9,30.24,ENE,68,13.6,13.6,58,-99.99,,---,-99.99,VWS V14.01,2013-01-25 05:33:00,
2013-01-24 21:38:00,44.8,30.9,30.24,ENE,72,18.3,18.3,58,-99.99,,---,-99.99,VWS V14.01,2013-01-25 05:38:00,
2013-01-24 21:43:00,44.6,30.8,30.24,ENE,78,15.4,15.4,58,-99.99,,---,-99.99,VWS V14.01,2013-01-25 05:43:00,
2013-01-24 21:48:00,44.6,30.3,30.24,ENE,62,13.2,13.2,57,-99.99,,---,-99.99,VWS V14.01,2013-01-25 05:48:00,
2013-01-24 21:53:00,44.6,30.8,30.24,ENE,62,13.2,13.2,58,-99.99,,---,-99.99,VWS V14.01,2013-01-25 05:53:00,
2013-01-24 21:58:00,44.4,30.6,30.24,ENE,59,12.8,12.8,58,-99.99,,---,-99.99,VWS V14.01,2013-01-25 05:58:00,
2013-01-24 22:03:00,44.4,30.6,30.24,ENE,62,12.3,12.3,58,-99.99,,---,-99.99,VWS V14.01,2013-01-25 06:03:00,
2013-01-24 22:08:00,44.2,30.4,30.24,ENE,72,13.2,13.2,58,-99.99,,---,-99.99,VWS V14.01,2013-01-25 06:08:00,
2013-01-24 22:13:00,44.2,30.4,30.24,NE,48,12.3,12.3,58,-99.99,,---,-99.99,VWS V14.01,2013-01-25 06:13:00,
2013-01-24 22:18:00,44.1,30.2,30.24,NE,54,15.0,15.0,58,-99.99,,---,-99.99,VWS V14.01,2013-01-25 06:18:00,
2013-01-24 22:23:00,44.1,30.2,30.24,ENE,62,10.5,10.5,58,-99.99,,---,-99.99,VWS V14.01,2013-01-25 06:23:00,
2013-01-24 22:28:00,44.2,30.8,30.24,ENE,62,10.5,10.5,59,-99.99,,---,-99.99,VWS V14.01,2013-01-25 06:28:00,
2013-01-24 22:33:00,44.2,30.8,30.24,NE,55,11.0,11.0,59,-99.99,,---,-99.99,VWS V14.01,2013-01-25 06:33:00,
2013-01-24 22:38:00,44.2,30.8,30.24,NE,41,8.7,12.3,59,-99.99,,---,-99.99,VWS V14.01,2013-01-25 06:38:00,
2013-01-24 22:43:00,44.2,31.2,30.24,ENE,64,11.0,11.0,60,-99.99,,---,-99.99,VWS V14.01,2013-01-25 06:43:00,
2013-01-24 22:48:00,44.2,31.2,30.24,ENE,59,10.5,10.5,60,-99.99,,---,-99.99,VWS V14.01,2013-01-25 06:48:00,
2013-01-24 22:53:00,44.2,31.2,30.24,ENE,65,12.3,12.3,60,-99.99,,---,-99.99,VWS V14.01,2013-01-25 06:53:00,
2013-01-24 22:58:00,44.1,30.7,30.24,ENE,75,8.7,8.7,59,-99.99,,---,-99.99,VWS V14.01,2013-01-25 06:58:00,
2013-01-24 23:03:00,44.1,30.7,30.24,ENE,75,8.7,8.7,59,-99.99,,---,-99.99,VWS V14.01,2013-01-25 07:03:00,
2013-01-24 23:08:00,44.1,31.1,30.24,ENE,75,8.7,8.7,60,-99.99,,---,-99.99,VWS V14.01,2013-01-25 07:08:00,
2013-01-24 23:13:00,44.1,31.1,30.24,NE,56,8.7,8.7,60,-99.99,,---,-99.99,VWS V14.01,2013-01-25 07:13:00,
2013-01-24 23:18:00,44.1,31.1,30.24,ENE,63,12.8,12.8,60,-99.99,,---,-99.99,VWS V14.01,2013-01-25 07:18:00,
2013-01-24 23:23:00,44.1,31.1,30.24,ENE,63,12.8,12.8,60,-99.99,,---,-99.99,VWS V14.01,2013-01-25 07:23:00,
2013-01-24 23:28:00,44.1,31.1,30.24,ENE,60,11.4,11.4,60,-99.99,,---,-99.99,VWS V14.01,2013-01-25 07:28:00,
2013-01-24 23:33:00,44.1,31.1,30.24,East,91,12.8,12.8,60,-99.99,,---,-99.99,VWS V14.01,2013-01-25 07:33:00,
2013-01-24 23:38:00,44.1,31.1,30.24,East,91,12.8,12.8,60,-99.99,,---,-99.99,VWS V14.01,2013-01-25 07:38:00,
2013-01-24 23:43:00,44.1,31.1,30.24,ENE,59,10.5,10.5,60,-99.99,,---,-99.99,VWS V14.01,2013-01-25 07:43:00,
2013-01-24 23:48:00,44.1,31.1,30.24,ENE,60,11.0,11.0,60,-99.99,,---,-99.99,VWS V14.01,2013-01-25 07:48:00,
2013-01-24 23:53:00,43.7,30.7,30.24,ENE,68,10.1,10.1,60,-99.99,,---,-99.99,VWS V14.01,2013-01-25 07:53:00,
2013-01-24 23:58:00,43.7,30.7,30.24,ENE,68,10.1,10.1,60,-99.99,,---,-99.99,VWS V14.01,2013-01-25 07:58:00,